Time,TemperatureF,DewpointF,PressureIn,WindDirection,WindDirectionDegrees,WindSpeedMPH,WindSpeedGustMPH,Humidity,HourlyPrecipIn,Conditions,Clouds,dailyrainin,SoftwareType,DateUTC
2013-12-20 00:42:00,47.0,43.0,29.78,SW,230,1.0,-999.0,87,0.00,,,-99.99,,2013-12-20 08:42:00,
2013-12-20 00:52:00,47.0,43.0,29.78,SW,230,1.0,-999.0,87,0.00,,,-99.99,,2013-12-20 08:52:00,
2013-12-20 01:43:00,47.0,44.0,29.77,West,280,2.0,-999.0,90,0.00,,,-99.99,,2013-12-20 09:43:00,
2013-12-20 01:53:00,47.0,44.0,29.77,West,280,2.0,-999.0,90,0.00,,,-99.99,,2013-12-20 09:53:00,
2013-12-20 02:42:00,47.0,42.0,29.77,North,-999,0.0,-999.0,84,0.00,,,-99.99,,2013-12-20 10:42:00,
2013-12-20 02:53:00,47.0,42.0,29.77,North,-999,0.0,-999.0,84,0.00,,,-99.99,,2013-12-20 10:53:00,
2013-12-20 03:42:00,46.0,41.0,29.78,NNW,330,1.0,-999.0,84,0.00,,,-99.99,,2013-12-20 11:42:00,
2013-12-20 03:52:00,46.0,41.0,29.78,NNW,330,1.0,-999.0,84,0.00,,,-99.99,,2013-12-20 11:52:00,
2013-12-20 04:42:00,47.0,42.0,29.76,NE,50,2.0,-999.0,82,0.00,,,-99.99,,2013-12-20 12:42:00,
2013-12-20 04:52:00,47.0,42.0,29.76,NE,50,2.0,-999.0,82,0.00,,,-99.99,,2013-12-20 12:52:00,
2013-12-20 07:53:00,47.0,43.0,29.82,East,90,2.0,-999.0,86,0.00,,,-99.99,,2013-12-20 15:53:00,
2013-12-20 08:43:00,47.0,42.0,29.83,East,90,2.0,-999.0,84,0.00,,,-99.99,,2013-12-20 16:43:00,
2013-12-20 08:53:00,47.0,42.0,29.83,East,90,2.0,-999.0,84,0.00,,,-99.99,,2013-12-20 16:53:00,
2013-12-20 09:42:00,51.0,46.0,29.85,East,90,3.0,-999.0,82,0.01,,,-99.99,,2013-12-20 17:42:00,
2013-12-20 09:52:00,51.0,46.0,29.85,East,90,3.0,-999.0,82,0.01,,,-99.99,,2013-12-20 17:52:00,
2013-12-20 10:42:00,54.0,47.0,29.87,North,-999,0.0,-999.0,78,0.00,,,-99.99,,2013-12-20 18:42:00,
2013-12-20 10:52:00,54.0,47.0,29.87,North,-999,0.0,-999.0,78,0.00,,,-99.99,,2013-12-20 18:52:00,
2013-12-20 11:42:00,54.0,47.0,29.86,SW,230,3.0,-999.0,77,0.00,,,-99.99,,2013-12-20 19:42:00,
2013-12-20 11:52:00,54.0,47.0,29.86,SW,230,3.0,-999.0,77,0.00,,,-99.99,,2013-12-20 19:52:00,
2013-12-20 12:22:00,55.0,48.0,29.85,SW,220,3.0,-999.0,76,0.00,,,-99.99,,2013-12-20 20:22:00,
2013-12-20 12:32:00,55.0,48.0,29.85,SW,220,3.0,-999.0,76,0.00,,,-99.99,,2013-12-20 20:32:00,
2013-12-20 12:42:00,55.0,48.0,29.85,SW,220,3.0,-999.0,76,0.00,,,-99.99,,2013-12-20 20:42:00,
2013-12-20 12:52:00,55.0,48.0,29.85,SW,220,3.0,-999.0,76,0.00,,,-99.99,,2013-12-20 20:52:00,
2013-12-20 13:43:00,57.0,49.0,29.84,SW,230,3.0,-999.0,75,0.00,,,-99.99,,2013-12-20 21:43:00,
2013-12-20 13:53:00,57.0,49.0,29.84,SW,230,3.0,-999.0,75,0.00,,,-99.99,,2013-12-20 21:53:00,
2013-12-20 14:43:00,58.0,49.0,29.84,North,-999,0.0,-999.0,72,0.00,,,-99.99,,2013-12-20 22:43:00,
2013-12-20 14:52:00,58.0,49.0,29.84,North,-999,0.0,-999.0,72,0.00,,,-99.99,,2013-12-20 22:52:00,
2013-12-20 15:42:00,58.0,47.0,29.85,SE,140,2.0,-999.0,68,0.00,,,-99.99,,2013-12-20 23:42:00,
2013-12-20 15:53:00,58.0,47.0,29.85,SE,140,2.0,-999.0,68,0.00,,,-99.99,,2013-12-20 23:53:00,
2013-12-20 16:52:00,58.0,49.0,29.85,WNW,290,4.0,-999.0,73,0.00,,,-99.99,,2013-12-21 00:52:00,
2013-12-20 17:42:00,53.0,47.0,29.86,SW,230,1.0,-999.0,79,0.00,,,-99.99,,2013-12-21 01:42:00,
2013-12-20 17:52:00,53.0,47.0,29.86,SW,230,1.0,-999.0,79,0.00,,,-99.99,,2013-12-21 01:52:00,
2013-12-20 18:42:00,52.0,47.0,29.87,SSW,210,2.0,-999.0,84,0.00,,,-99.99,,2013-12-21 02:42:00,
2013-12-20 18:52:00,52.0,47.0,29.87,SSW,210,2.0,-999.0,84,0.00,,,-99.99,,2013-12-21 02:52:00,
2013-12-20 19:21:00,51.0,46.0,29.90,North,-999,0.0,-999.0,84,0.00,,,-99.99,,2013-12-21 03:21:00,
2013-12-20 19:33:00,51.0,46.0,29.90,North,-999,0.0,-999.0,84,0.00,,,-99.99,,2013-12-21 03:33:00,
2013-12-20 19:43:00,51.0,46.0,29.90,North,-999,0.0,-999.0,84,0.00,,,-99.99,,2013-12-21 03:43:00,
2013-12-20 19:53:00,51.0,46.0,29.90,North,-999,0.0,-999.0,84,0.00,,,-99.99,,2013-12-21 03:53:00,
2013-12-20 20:23:00,50.0,46.0,29.90,ENE,70,3.0,-999.0,86,0.00,,,-99.99,,2013-12-21 04:23:00,
2013-12-20 20:32:00,50.0,46.0,29.90,ENE,70,3.0,-999.0,86,0.00,,,-99.99,,2013-12-21 04:32:00,
2013-12-20 20:42:00,50.0,46.0,29.90,ENE,70,3.0,-999.0,86,0.00,,,-99.99,,2013-12-21 04:42:00,
2013-12-20 20:52:00,50.0,46.0,29.90,ENE,70,3.0,-999.0,86,0.00,,,-99.99,,2013-12-21 04:52:00,
2013-12-20 21:22:00,50.0,46.0,29.91,East,90,2.0,-999.0,86,0.00,,,-99.99,,2013-12-21 05:22:00,
2013-12-20 21:33:00,50.0,46.0,29.91,East,90,2.0,-999.0,86,0.00,,,-99.99,,2013-12-21 05:33:00,
2013-12-20 21:42:00,50.0,46.0,29.91,East,90,2.0,-999.0,86,0.00,,,-99.99,,2013-12-21 05:42:00,
2013-12-20 21:52:00,50.0,46.0,29.91,East,90,2.0,-999.0,86,0.00,,,-99.99,,2013-12-21 05:52:00,
2013-12-20 22:21:00,49.0,45.0,29.92,North,-999,0.0,-999.0,86,0.00,,,-99.99,,2013-12-21 06:21:00,
2013-12-20 22:32:00,49.0,45.0,29.92,North,-999,0.0,-999.0,86,0.00,,,-99.99,,2013-12-21 06:32:00,
2013-12-20 22:42:00,49.0,45.0,29.92,North,-999,0.0,-999.0,86,0.00,,,-99.99,,2013-12-21 06:42:00,
2013-12-20 22:52:00,49.0,45.0,29.92,North,-999,0.0,-999.0,86,0.00,,,-99.99,,2013-12-21 06:52:00,
2013-12-20 23:22:00,49.0,45.0,29.94,East,90,1.0,-999.0,86,0.00,,,-99.99,,2013-12-21 07:22:00,
2013-12-20 23:32:00,49.0,45.0,29.94,East,90,1.0,-999.0,86,0.00,,,-99.99,,2013-12-21 07:32:00,
2013-12-20 23:42:00,49.0,45.0,29.94,East,90,1.0,-999.0,86,0.00,,,-99.99,,2013-12-21 07:42:00,
2013-12-20 23:52:00,49.0,45.0,29.94,East,90,1.0,-999.0,86,0.00,,,-99.99,,2013-12-21 07:52:00,